Bar Harbor, ME

10:54 AM EDT on April 28, 2017 (GMT -0400)
Hancock County-Bar Harbor

Weather History for KBHB - January, 2014

Change the Weather History Date:

Friday, January 31, 2014

  Actual Average Record
Temperature  
Mean Temperature 34 °F -  
Max Temperature 39 °F 30 °F 55 °F (2013)
Min Temperature 26 °F 12 °F -14 °F (1973)
Degree Days  
Heating Degree Days 32    
Moisture  
Dew Point 22 °F    
Average Humidity 65    
Maximum Humidity 86    
Minimum Humidity 33    
Precipitation  
Precipitation 0.00 in - - ()
Sea Level Pressure  
Sea Level Pressure 30.02 in    
Wind  
Wind Speed 12 mph (SW)    
Max Wind Speed 24 mph    
Max Gust Speed 32 mph    
Visibility 10 miles    
Events      
Averages and records for this station are not official NWS values.
T = Trace of Precipitation, MM = Missing Value Source: NWS Daily Summary

Daily Weather History Graph

Daily Weather History Graph

Search for Another Location

Airport or City:

Trip Planner

Search our weather history database for the weather conditions in past years. The results will help you decide how hot, cold, wet, or windy it might be!

Date:

Astronomy

Jan. 31, 2014 Rise Set
Actual Time 6:53 AM EST 4:41 PM EST
Civil Twilight 6:22 AM EST 5:12 PM EST
Nautical Twilight 5:47 AM EST 5:47 PM EST
Astronomical Twilight 5:13 AM EST 6:21 PM EST
Moon 6:56 AM EST (1/31) 6:06 PM EST (1/31)
Length of Visible Light 10h 50m
Length of Day
9h 48m
New Moon, 1% of the Moon is Illuminated
Jan 31
New Moon
Feb 6
First Quarter
Feb 14
Full
Feb 22
Last Quarter
Mar 1
New

Hourly Weather History & Observations

Time (EST) Temp. Windchill Dew Point Humidity Pressure Visibility Wind Dir Wind Speed Gust Speed Precip Events Conditions
12:15 AM 30.2 °F 18.9 °F 23.0 °F 75% 30.14 in 10.0 mi SSW 16.1 mph - N/A   Overcast
12:35 AM 30.2 °F 19.3 °F 24.8 °F 80% 30.14 in 10.0 mi SSW 15.0 mph 19.6 mph N/A   Overcast
12:55 AM 30.2 °F 18.5 °F 24.8 °F 80% 30.13 in 10.0 mi SSW 17.3 mph 27.6 mph N/A   Overcast
1:15 AM 30.2 °F 17.8 °F 24.8 °F 80% 30.11 in 10.0 mi SSW 19.6 mph 26.5 mph N/A   Overcast
1:35 AM 30.2 °F 18.5 °F 24.8 °F 80% 30.11 in 10.0 mi SSW 17.3 mph 26.5 mph N/A   Overcast
1:55 AM 30.2 °F 20.2 °F 24.8 °F 80% 30.10 in 10.0 mi SSW 12.7 mph 23.0 mph N/A   Overcast
2:15 AM 30.2 °F 19.3 °F 26.6 °F 86% 30.09 in 10.0 mi SSW 15.0 mph 20.7 mph N/A   Overcast
2:35 AM 30.2 °F 18.5 °F 24.8 °F 80% 30.09 in 10.0 mi SSW 17.3 mph 23.0 mph N/A   Overcast
2:55 AM 30.2 °F 19.3 °F 24.8 °F 80% 30.07 in 10.0 mi SSW 15.0 mph 21.9 mph N/A   Mostly Cloudy
3:15 AM 30.2 °F 21.3 °F 24.8 °F 80% 30.07 in 10.0 mi SSW 10.4 mph 19.6 mph N/A   Mostly Cloudy
3:35 AM 30.2 °F 21.3 °F 26.6 °F 86% 30.07 in 10.0 mi SSW 10.4 mph 18.4 mph N/A   Overcast
3:55 AM 30.2 °F 19.3 °F 26.6 °F 86% 30.05 in 10.0 mi SSW 15.0 mph - N/A   Overcast
4:15 AM 32.0 °F 22.5 °F 26.6 °F 80% 30.04 in 10.0 mi SSW 12.7 mph 21.9 mph N/A   Overcast
4:35 AM 32.0 °F 23.0 °F 26.6 °F 80% 30.04 in 10.0 mi SW 11.5 mph 20.7 mph N/A   Mostly Cloudy
4:55 AM 32.0 °F 20.1 °F 24.8 °F 75% 30.03 in 10.0 mi SW 19.6 mph 26.5 mph N/A   Mostly Cloudy
5:15 AM 32.0 °F 22.5 °F 26.6 °F 80% 30.01 in 10.0 mi SSW 12.7 mph 20.7 mph N/A   Scattered Clouds
5:35 AM 32.0 °F 22.5 °F 26.6 °F 80% 30.02 in 10.0 mi SSW 12.7 mph 23.0 mph N/A   Mostly Cloudy
5:55 AM 32.0 °F 22.5 °F 26.6 °F 80% 30.01 in 10.0 mi SSW 12.7 mph 21.9 mph N/A   Scattered Clouds
6:15 AM 33.8 °F 23.9 °F 26.6 °F 75% 30.01 in 10.0 mi SSW 15.0 mph 20.7 mph N/A   Mostly Cloudy
6:35 AM 33.8 °F 24.3 °F 26.6 °F 75% 30.00 in 10.0 mi SW 13.8 mph 20.7 mph N/A   Mostly Cloudy
6:55 AM 33.8 °F 23.2 °F 26.6 °F 75% 29.99 in 10.0 mi SSW 17.3 mph 25.3 mph N/A   Mostly Cloudy
7:15 AM 33.8 °F 21.3 °F 28.4 °F 81% 29.95 in 10.0 mi SSW 24.2 mph 32.2 mph N/A   Mostly Cloudy
7:35 AM 35.6 °F 24.2 °F 28.4 °F 75% 29.96 in 10.0 mi SSW 21.9 mph 29.9 mph N/A   Scattered Clouds
7:55 AM 35.6 °F 25.5 °F 28.4 °F 75% 29.97 in 10.0 mi SSW 17.3 mph 25.3 mph N/A   Partly Cloudy
8:15 AM 35.6 °F 25.5 °F 28.4 °F 75% 29.98 in 10.0 mi SW 17.3 mph 27.6 mph N/A   Mostly Cloudy
8:35 AM 35.6 °F 27.1 °F 30.2 °F 81% 29.98 in 10.0 mi SW 12.7 mph 25.3 mph N/A   Overcast
8:55 AM 35.6 °F 26.2 °F 28.4 °F 75% 29.98 in 10.0 mi SW 15.0 mph 23.0 mph N/A   Overcast
9:15 AM 33.8 °F 23.9 °F 28.4 °F 81% 29.97 in 10.0 mi SW 15.0 mph 24.2 mph N/A   Overcast
9:35 AM 33.8 °F 25.3 °F 28.4 °F 81% 29.97 in 10.0 mi SW 11.5 mph 17.3 mph N/A   Overcast
9:55 AM 35.6 °F 29.2 °F 28.4 °F 75% 29.97 in 10.0 mi West 8.1 mph 17.3 mph N/A   Overcast
10:15 AM 35.6 °F 28.6 °F 26.6 °F 70% 29.97 in 10.0 mi WSW 9.2 mph 19.6 mph N/A   Overcast
10:35 AM 35.6 °F 28.0 °F 24.8 °F 65% 29.97 in 10.0 mi SW 10.4 mph 18.4 mph N/A   Mostly Cloudy
10:55 AM 35.6 °F 29.2 °F 24.8 °F 65% 29.97 in 10.0 mi West 8.1 mph - N/A   Mostly Cloudy
11:15 AM 35.6 °F 28.0 °F 19.4 °F 52% 29.96 in 10.0 mi West 10.4 mph 16.1 mph N/A   Scattered Clouds
11:35 AM 35.6 °F 28.6 °F 19.4 °F 52% 29.96 in 10.0 mi WSW 9.2 mph - N/A   Partly Cloudy
11:55 AM 37.4 °F 31.4 °F 17.6 °F 45% 29.95 in 10.0 mi WSW 8.1 mph 18.4 mph N/A   Clear
12:15 PM 37.4 °F 30.3 °F 14.0 °F 38% 29.94 in 10.0 mi SW 10.4 mph 16.1 mph N/A   Clear
12:35 PM 37.4 °F 29.8 °F 14.0 °F 38% 29.94 in 10.0 mi SW 11.5 mph 16.1 mph N/A   Clear
12:55 PM 37.4 °F 31.4 °F 12.2 °F 36% 29.94 in 10.0 mi SW 8.1 mph - N/A   Clear
1:15 PM 37.4 °F 30.8 °F 12.2 °F 36% 29.94 in 10.0 mi SW 9.2 mph - N/A   Clear
1:35 PM 37.4 °F 30.3 °F 12.2 °F 36% 29.93 in 10.0 mi WSW 10.4 mph - N/A   Clear
1:55 PM 39.2 °F 33.6 °F 12.2 °F 33% 29.93 in 10.0 mi WSW 8.1 mph - N/A   Clear
2:15 PM 39.2 °F 35.9 °F 12.2 °F 33% 29.93 in 10.0 mi WSW 4.6 mph - N/A   Clear
2:35 PM 37.4 °F 34.9 °F 14.0 °F 38% 29.94 in 10.0 mi WSW 3.5 mph - N/A   Clear
2:55 PM 37.4 °F 32.8 °F 12.2 °F 36% 29.96 in 10.0 mi WSW 5.8 mph - N/A   Clear
3:15 PM 37.4 °F 33.8 °F 14.0 °F 38% 29.97 in 10.0 mi West 4.6 mph - N/A   Clear
3:35 PM 37.4 °F 34.9 °F 12.2 °F 36% 29.97 in 10.0 mi West 3.5 mph - N/A   Clear
3:55 PM 35.6 °F 31.7 °F 17.6 °F 48% 29.97 in 10.0 mi SW 4.6 mph - N/A   Clear
4:15 PM 35.6 °F - 17.6 °F 48% 29.98 in 10.0 mi Calm Calm - N/A   Partly Cloudy
4:35 PM 35.6 °F 31.7 °F 17.6 °F 48% 29.99 in 10.0 mi SW 4.6 mph - N/A   Partly Cloudy
4:55 PM 33.8 °F 30.8 °F 17.6 °F 52% 29.99 in 10.0 mi SW 3.5 mph - N/A   Partly Cloudy
5:15 PM 33.8 °F 29.6 °F 19.4 °F 56% 30.00 in 10.0 mi SW 4.6 mph - N/A   Clear
5:35 PM 33.8 °F - 19.4 °F 56% 30.01 in 10.0 mi Calm Calm - N/A   Clear
5:55 PM 33.8 °F 29.6 °F 19.4 °F 56% 30.01 in 10.0 mi SW 4.6 mph - N/A   Clear
6:15 PM 33.8 °F 29.6 °F 19.4 °F 56% 30.02 in 10.0 mi SSW 4.6 mph - N/A   Clear
6:35 PM 33.8 °F - 19.4 °F 56% 30.03 in 10.0 mi Calm Calm - N/A   Clear
6:55 PM 33.8 °F 30.8 °F 19.4 °F 56% 30.04 in 10.0 mi WSW 3.5 mph - N/A   Clear
7:15 PM 33.8 °F 30.8 °F 19.4 °F 56% 30.05 in 10.0 mi WSW 3.5 mph - N/A   Clear
7:35 PM 33.8 °F - 19.4 °F 56% 30.04 in 10.0 mi Calm Calm - N/A   Clear
7:55 PM 32.0 °F - 21.2 °F 64% 30.05 in 10.0 mi Calm Calm - N/A   Clear
8:15 PM 32.0 °F 28.7 °F 23.0 °F 69% 30.07 in 10.0 mi SW 3.5 mph - N/A   Clear
8:35 PM 30.2 °F 26.7 °F 23.0 °F 75% 30.08 in 10.0 mi SW 3.5 mph - N/A   Clear
8:55 PM 32.0 °F - 21.2 °F 64% 30.09 in 10.0 mi Calm Calm - N/A   Clear
9:15 PM 32.0 °F 27.5 °F 21.2 °F 64% 30.10 in 10.0 mi WSW 4.6 mph - N/A   Clear
9:35 PM 32.0 °F 27.5 °F 23.0 °F 69% 30.10 in 10.0 mi West 4.6 mph - N/A   Clear
9:55 PM 32.0 °F - 21.2 °F 64% 30.11 in 10.0 mi Calm Calm - N/A   Clear
10:15 PM 30.2 °F 26.7 °F 21.2 °F 69% 30.12 in 10.0 mi WSW 3.5 mph - N/A   Clear
10:35 PM 30.2 °F 26.7 °F 21.2 °F 69% 30.13 in 10.0 mi West 3.5 mph - N/A   Clear
10:55 PM 30.2 °F - 21.2 °F 69% 30.14 in 10.0 mi Calm Calm - N/A   Clear
11:15 PM 28.4 °F - 21.2 °F 74% 30.14 in 10.0 mi Calm Calm - N/A   Clear
11:35 PM 28.4 °F - 21.2 °F 74% 30.14 in 10.0 mi Calm Calm - N/A   Clear
11:55 PM 26.6 °F - 21.2 °F 80% 30.14 in 10.0 mi Calm Calm - N/A   Clear